Regional Weather Roundup
Issued by NWS Midland/Odessa, TX

Skip options and go directly to product.
Home | Oldest Version | Previous Version | Current Version | All | Text Only | Save Text | Print | Product List | Glossary On

Skip product version selection by date and time.   
386
ASUS44 KMAF 211910
RWRMAF
MIDLAND AREA WEATHER ROUNDUP
NATIONAL WEATHER SERVICE MIDLAND TX
100 PM CST SUN DEC 21 2014

...IN SOUTHWEST TEXAS AND SOUTHEAST NEW MEXICO...

CITY           SKY/WX    TMP DP  RH WIND       PRES   REMARKS
ALPINE         SUNNY     63  22  21 W20G25    30.02F
ANDREWS        FAIR      61  28  28 W15       29.86F
ARTESIA        MOSUNNY   64  27  24 W12G17    29.86F
BIG SPRING     SUNNY     62  33  33 S15       29.89F
CARLSBAD       MOSUNNY   67  24  19 W21G28    29.87F
DRYDEN           N/A     63  43  48 SW12      29.93F
FORT STOCKTON  SUNNY     68  21  16 W13       29.90F
GUAD PASS      NOT AVBL
HOBBS          SUNNY     63  25  23 SW18G25   29.87F
MARFA          SUNNY     61  25  25 W22       30.01F
MIDLAND AIRPK  SUNNY     61  32  32 SW15      29.88F
MIDLAND INTL   SUNNY     61  32  33 W20       29.88F
ODESSA         SUNNY     60  29  30 W15       29.89F
PECOS          SUNNY     67  27  22 W23       29.91F
PRESIDIO       FAIR      61  31  31 W3        30.01F
SEMINOLE       SUNNY     63  32  30 W15G21    29.85F
SNYDER         SUNNY     59  39  48 SW16      29.84F
WINK           SUNNY     63  29  27 W14       29.89F
$$
...OTHER STATIONS IN TEXAS...

CITY           SKY/WX    TMP DP  RH WIND       PRES   REMARKS
ABILENE        SUNNY     56  43  61 S21G26    29.86F
AMARILLO       SUNNY     55  25  31 W7        29.73F
AUSTIN         CLOUDY    55  47  74 S9        30.01F
BROWNSVILLE    CLOUDY    65  59  81 N12       30.00F
CORPUS CHRISTI CLOUDY    59  53  80 NE8       30.02F
DALLAS FTW     CLOUDY    50  44  80 SE13      29.95F
DEL RIO        CLOUDY    53  48  83 SE7       30.00F
EL PASO        PTSUNNY   54  28  36 SW20      30.01F
HOUSTON INT    PTSUNNY   59  48  67 E5        30.02F
LUBBOCK        MOSUNNY   63  26  24 W28G38    29.76F
SAN ANGELO     PTSUNNY   57  43  59 S18G26    29.91F
SAN ANTONIO    CLOUDY    55  50  83 S9        30.02F
WACO           CLOUDY    54  46  74 S15       29.98F
WICHITA FALLS  NOT AVBL
$$
...OTHER LOCATIONS IN NEW MEXICO...

CITY           SKY/WX    TMP DP  RH WIND       PRES   REMARKS
ALAMAGORDO     MOSUNNY   50  28  43 CALM      30.03F
ALBUQUERQUE    PTSUNNY   43  28  55 NW7       30.03R WCI  39
CANNON AFB     SUNNY     56  26  31 W17G25    29.77F
CLOVIS         SUNNY     55  27  33 W18       29.76F
HOLLOMAN AFB   MOSUNNY   49  30  48 CALM      30.00F
ROSWELL        SUNNY     63  28  26 SE8       29.82F
RUIDOSO        SUNNY     48  25  40 NW28G40   29.92F WCI  40
SANTA FE       PTSUNNY   40  25  55 N16       29.98R WCI  31
TRUTH OR CONSE MOSUNNY   54  26  34 SW9       29.99F
TUCUMCARI      SUNNY     60  14  16 W9        29.74F
$$

USA.gov is the U.S. government's official web portal to all federal, state and local government web resources and services.